DL6MAA-11 Weather Reports


time (UTC)temp
C
wind
direction
speed
KPH
gust
KPH
rain 1hr
cm
rain 24hr
cm
rain mn
cm
humidity
%
barometer
mb
20260903022709 13 239 0.0 0.0 0.00 0.00 0.00 75 1020.5
20260903022202 13 239 0.0 0.0 0.00 0.00 0.00 75 1020.5
20260903021713 13 239 0.0 0.0 0.00 0.00 0.00 75 1020.5
20260903021208 13 239 0.0 0.0 0.00 0.00 0.00 75 1020.1
20260903020702 13 239 0.0 0.0 0.00 0.00 0.00 76 1020.1
20260903020210 14 239 0.0 0.0 0.00 0.00 0.00 76 1020.1
20260903015713 14 238 0.0 0.0 0.00 0.00 0.00 76 1020.2
20260903015201 14 238 0.0 0.0 0.00 0.00 0.00 76 1020.2
20260903014709 14 238 0.0 0.0 0.00 0.00 0.00 76 1020.2
20260903014159 14 272 0.0 0.0 0.00 0.00 0.00 76 1020.3
20260903013701 14 272 0.0 0.0 0.00 0.00 0.00 76 1020.3
20260903013208 14 273 0.0 0.0 0.00 0.00 0.00 76 1020.3
20260903012704 14 275 0.0 0.0 0.00 0.00 0.00 76 1020.1
20260903012156 14 272 0.0 0.0 0.00 0.00 0.00 76 1020.1
20260903011710 14 272 0.0 0.0 0.00 0.00 0.00 76 1020.1
20260903011216 14 273 0.0 0.0 0.00 0.00 0.00 75 1020.2
20260903010659 14 272 0.0 0.0 0.00 0.00 0.00 75 1020.2
20260903010204 14 273 0.0 0.0 0.00 0.00 0.00 75 1020.2
20260903005709 14 273 0.0 0.0 0.00 0.00 0.00 75 1020.2
20260903005209 14 272 0.0 0.0 0.00 0.00 0.00 75 1020.2
20260903004712 14 273 0.0 0.0 0.00 0.00 0.00 74 1020.2
20260903004203 14 272 0.0 0.0 0.00 0.00 0.00 74 1020.3
20260903003707 14 273 0.0 0.0 0.00 0.00 0.00 74 1020.3
20260903003213 14 273 0.0 0.0 0.00 0.00 0.00 73 1020.3
20260903002657 14 273 0.0 0.0 0.00 0.00 0.00 74 1020.3
20260903002207 14 273 0.0 0.0 0.00 0.00 0.00 74 1020.3
20260903001701 14 360 0.0 0.0 0.00 0.00 0.00 74 1020.3
20260903001156 14 272 0.0 0.0 0.00 0.00 0.00 74 1020.3
20260903000707 14 273 0.0 0.0 0.00 0.00 0.00 74 1020.3
20260903000156 14 273 0.0 0.0 0.00 0.00 0.00 74 1020.3
20260902235702 14 273 0.0 0.0 0.00 0.00 0.00 74 1020.2
20260902235206 14 360 0.0 0.0 0.00 0.00 0.00 74 1020.2
20260902234658 14 360 0.0 0.0 0.00 0.00 0.00 73 1020.2
20260902234202 14 360 0.0 0.0 0.00 0.00 0.00 73 1020.2
20260902233707 14 276 0.0 0.0 0.00 0.00 0.00 72 1020.2
20260902233212 15 272 0.0 0.0 0.00 0.00 0.00 72 1020.2
20260902232715 15 273 0.0 0.0 0.00 0.00 0.00 72 1020.4
20260902232215 15 273 0.0 0.0 0.00 0.00 0.00 72 1020.4
20260902231701 15 273 0.0 0.0 0.00 0.00 0.00 72 1020.4
20260902231204 15 273 0.0 0.0 0.00 0.00 0.00 71 1020.4
20260902230702 15 360 0.0 0.0 0.00 0.00 0.00 71 1020.4
20260902230207 15 271 0.0 0.0 0.00 0.00 0.00 71 1020.4
20260902225702 15 273 0.0 0.0 0.00 0.00 0.00 71 1020.4
20260902225157 15 360 0.0 0.0 0.00 0.00 0.00 71 1020.4
20260902224711 15 271 0.0 0.0 0.00 0.00 0.00 71 1020.4
20260902224202 15 273 0.0 0.0 0.00 0.00 0.00 70 1020.4
20260902223705 15 281 0.0 0.0 0.00 0.00 0.00 72 1020.4
20260902223207 15 281 0.0 0.0 0.00 0.00 0.00 70 1020.4
20260902222705 15 281 0.0 0.0 0.00 0.00 0.00 70 1020.4
20260902222211 15 281 0.0 0.0 0.00 0.00 0.00 70 1020.4
20260902221713 15 281 0.0 0.0 0.00 0.00 0.00 70 1020.4
20260902221216 15 281 0.0 0.0 0.00 0.00 0.00 70 1020.4
20260902220700 16 281 0.0 0.0 0.00 0.00 0.00 70 1020.4
20260902220203 16 281 0.0 0.0 0.00 0.00 0.00 69 1020.4
20260902215709 16 281 0.0 0.0 0.00 0.00 0.00 69 1020.3
20260902215159 16 281 0.0 0.0 0.00 0.00 0.00 69 1020.3
20260902214707 16 360 0.0 0.0 0.00 0.00 0.00 68 1020.3
20260902214212 16 281 0.0 0.0 0.00 0.00 0.00 68 1020.1
20260902213656 16 281 0.0 0.0 0.00 0.00 0.00 67 1020.1
20260902213205 16 281 0.0 0.0 0.00 0.00 0.00 67 1020.1
20260902212714 16 281 0.0 0.0 0.00 0.00 0.00 67 1020.0
20260902212213 16 281 0.0 0.0 0.00 0.00 0.00 66 1020.0
20260902211701 17 283 0.0 0.0 0.00 0.00 0.00 66 1020.0
20260902211201 17 281 0.0 0.0 0.00 0.00 0.00 66 1020.1
20260902210709 17 360 0.0 0.0 0.00 0.00 0.00 65 1020.1
20260902210156 17 282 0.0 0.0 0.00 0.00 0.00 65 1020.1
20260902205717 17 281 0.0 0.0 0.00 0.00 0.00 65 1019.9
20260902205202 17 281 0.0 0.0 0.00 0.00 0.00 64 1019.9
20260902204711 17 281 0.0 0.0 0.00 0.00 0.00 64 1019.9
20260902204200 18 360 0.0 0.0 0.00 0.00 0.00 64 1019.6
20260902203659 18 281 0.0 0.0 0.00 0.00 0.00 63 1019.6
20260902203205 18 283 0.0 0.0 0.00 0.00 0.00 63 1019.6
20260902202702 18 0.0 0.0 0.00 0.00 0.00 63 1019.4
20260902202207 -17 0.0 0.0 0.00 0.00 0.00 1019.4
20260902201707 -17 0.0 0.0 0.00 0.00 0.00 1019.4
20260902201205 -17 0.0 0.0 0.00 0.00 0.00 1019.6
20260902200659 18 0.0 0.0 0.00 0.00 0.00 60 1019.6
20260902200208 18 281 0.0 0.0 0.00 0.00 0.00 60 1019.6
20260902195713 18 281 0.0 0.0 0.00 0.00 0.00 59 1019.5
20260902195204 19 360 0.0 0.0 0.00 0.00 0.00 59 1019.5
20260902194711 19 281 0.0 0.0 0.00 0.00 0.00 59 1019.5
20260902194210 19 281 0.0 0.0 0.00 0.00 0.00 59 1019.5
20260902193657 19 281 0.0 0.0 0.00 0.00 0.00 58 1019.5
20260902193158 19 281 0.0 0.0 0.00 0.00 0.00 58 1019.5
20260902192702 20 281 0.0 0.0 0.00 0.00 0.00 57 1019.4
20260902192159 20 281 0.0 0.0 0.00 0.00 0.00 57 1019.4
20260902191710 20 360 0.0 0.0 0.00 0.00 0.00 56 1019.4
20260902191201 20 281 0.0 0.0 0.00 0.00 0.00 56 1019.9
20260902190707 20 280 0.0 0.0 0.00 0.00 0.00 56 1019.9
20260902190158 20 280 0.0 0.0 0.00 0.00 0.00 55 1019.9
20260902185705 20 280 0.0 0.0 0.00 0.00 0.00 55 1019.6
20260902185209 20 280 0.0 0.0 0.00 0.00 0.00 54 1019.6
20260902184708 20 290 0.0 0.0 0.00 0.00 0.00 54 1019.6
20260902184213 20 290 1.6 0.0 0.00 0.00 0.00 54 1019.3
20260902183656 20 290 1.6 0.0 0.00 0.00 0.00 53 1019.3
20260902183204 21 322 0.0 0.0 0.00 0.00 0.00 53 1019.3
20260902182712 21 234 0.0 0.0 0.00 0.00 0.00 53 1019.2
20260902182206 21 232 0.0 0.0 0.00 0.00 0.00 52 1019.2
20260902181701 21 232 0.0 0.0 0.00 0.00 0.00 51 1019.2
20260902181214 21 232 0.0 0.0 0.00 0.00 0.00 51 1019.0
20260902180659 21 232 0.0 0.0 0.00 0.00 0.00 51 1019.0
20260902180201 21 223 0.0 0.0 0.00 0.00 0.00 51 1019.0
20260902175659 21 227 0.0 0.0 0.00 0.00 0.00 51 1018.7
20260902175208 21 224 0.0 0.0 0.00 0.00 0.00 50 1018.7
20260902174659 21 225 0.0 0.0 0.00 0.00 0.00 49 1018.7
20260902174205 21 230 0.0 0.0 0.00 0.00 0.00 49 1018.6
20260902173711 21 360 0.0 0.0 0.00 0.00 0.00 49 1018.6
20260902173156 21 360 0.0 0.0 0.00 0.00 0.00 50 1018.6
20260902172659 21 230 0.0 0.0 0.00 0.00 0.00 49 1018.5
20260902172207 21 244 0.0 0.0 0.00 0.00 0.00 49 1018.5
20260902171701 21 360 0.0 0.0 0.00 0.00 0.00 50 1018.5
20260902171155 21 226 0.0 0.0 0.00 0.00 0.00 49 1018.5
20260902170710 22 360 0.0 0.0 0.00 0.00 0.00 50 1018.5
20260902170202 22 233 0.0 0.0 0.00 0.00 0.00 49 1018.5
20260902165701 22 275 0.0 0.0 0.00 0.00 0.00 50 1018.5
20260902165206 22 275 0.0 0.0 0.00 0.00 0.00 49 1018.5
20260902164706 22 275 0.0 0.0 0.00 0.00 0.00 49 1018.5
20260902164209 22 218 0.0 0.0 0.00 0.00 0.00 48 1018.3
20260902163718 22 232 1.6 0.0 0.00 0.00 0.00 48 1018.3
20260902163206 22 218 3.2 0.0 0.00 0.00 0.00 47 1018.3
20260902162717 22 360 3.2 0.0 0.00 0.00 0.00 47 1018.1
20260902162159 23 267 1.6 0.0 0.00 0.00 0.00 47 1018.1
20260902161705 23 253 4.8 0.0 0.00 0.00 0.00 46 1018.1
20260902161212 23 288 3.2 0.0 0.00 0.00 0.00 46 1017.9
20260902160657 23 360 0.0 0.0 0.00 0.00 0.00 46 1017.9
20260902160206 23 246 0.0 0.0 0.00 0.00 0.00 46 1017.9
20260902155712 23 259 1.6 0.0 0.00 0.00 0.00 46 1017.8
20260902155205 23 203 3.2 0.0 0.00 0.00 0.00 46 1017.8
20260902154713 23 360 3.2 0.0 0.00 0.00 0.00 45 1017.8
20260902154156 23 273 0.0 0.0 0.00 0.00 0.00 44 1018.6
20260902153705 23 209 0.0 0.0 0.00 0.00 0.00 46 1018.6
20260902153206 24 168 1.6 0.0 0.00 0.00 0.00 45 1018.6
20260902152705 24 360 3.2 0.0 0.00 0.00 0.00 45 1018.0
20260902152207 23 254 8.0 0.0 0.00 0.00 0.00 46 1018.0
20260902151718 23 283 8.0 0.0 0.00 0.00 0.00 46 1018.0
20260902151200 23 360 8.0 0.0 0.00 0.00 0.00 44 1018.9
20260902150706 24 271 8.0 0.0 0.00 0.00 0.00 45 1018.9
20260902150158 24 257 9.7 0.0 0.00 0.00 0.00 43 1018.9
20260902145713 23 250 8.0 0.0 0.00 0.00 0.00 46 1018.0
20260902145203 23 360 4.8 0.0 0.00 0.00 0.00 46 1018.0
20260902144717 23 360 4.8 0.0 0.00 0.00 0.00 46 1018.0
20260902144202 23 275 3.2 0.0 0.00 0.00 0.00 48 1017.9
20260902143705 24 276 3.2 0.0 0.00 0.00 0.00 44 1017.9
20260902143213 23 288 4.8 0.0 0.00 0.00 0.00 47 1017.9
20260902142705 24 360 3.2 0.0 0.00 0.00 0.00 47 1018.8
20260902142211 24 271 6.4 0.0 0.00 0.00 0.00 47 1018.8
20260902141712 25 288 6.4 0.0 0.00 0.00 0.00 44 1018.8
20260902141156 25 236 6.4 0.0 0.00 0.00 0.00 45 1018.8
20260902140700 25 283 6.4 0.0 0.00 0.00 0.00 45 1018.8
20260902140159 25 360 1.6 0.0 0.00 0.00 0.00 45 1018.8
20260902135701 24 186 3.2 0.0 0.00 0.00 0.00 46 1018.9
20260902135210 24 232 8.0 0.0 0.00 0.00 0.00 47 1018.9
20260902134716 24 360 4.8 0.0 0.00 0.00 0.00 44 1018.9
20260902134159 24 304 3.2 0.0 0.00 0.00 0.00 48 1018.9
20260902133704 23 190 4.8 0.0 0.00 0.00 0.00 46 1018.9
20260902133211 25 278 4.8 0.0 0.00 0.00 0.00 44 1018.9
20260902132711 25 176 3.2 0.0 0.00 0.00 0.00 43 1018.9
20260902132205 24 292 3.2 0.0 0.00 0.00 0.00 46 1018.9
20260902131717 24 360 1.6 0.0 0.00 0.00 0.00 46 1018.9
20260902131203 24 0.0 0.0 0.00 0.00 0.00 45 1018.1
20260902130711 24 198 6.4 0.0 0.00 0.00 0.00 47 1018.1
20260902130201 23 271 8.0 0.0 0.00 0.00 0.00 48 1018.1
20260902125719 23 360 4.8 0.0 0.00 0.00 0.00 48 1018.9
20260902125205 25 288 1.6 0.0 0.00 0.00 0.00 48 1018.9
20260902124710 24 193 1.6 0.0 0.00 0.00 0.00 47 1018.9
20260902124216 24 360 1.6 0.0 0.00 0.00 0.00 46 1019.3
20260902123715 25 153 1.6 0.0 0.00 0.00 0.00 47 1019.3
20260902123201 24 188 4.8 0.0 0.00 0.00 0.00 48 1019.3
20260902122709 23 360 6.4 0.0 0.00 0.00 0.00 48 1019.5
20260902122209 23 311 3.2 0.0 0.00 0.00 0.00 48 1019.5
20260902121717 24 240 1.6 0.0 0.00 0.00 0.00 46 1019.5
20260902121209 24 150 3.2 0.0 0.00 0.00 0.00 49 1019.0
20260902120714 23 360 3.2 0.0 0.00 0.00 0.00 49 1019.0
20260902120218 23 186 3.2 0.0 0.00 0.00 0.00 51 1019.0
20260902115705 23 288 6.4 0.0 0.00 0.00 0.00 50 1018.7
20260902115204 23 274 11.3 0.0 0.00 0.00 0.00 51 1018.7
20260902114711 23 288 11.3 0.0 0.00 0.00 0.00 51 1018.7
20260902114214 23 360 4.8 0.0 0.00 0.00 0.00 52 1018.9
20260902113704 23 301 1.6 0.0 0.00 0.00 0.00 50 1018.9
20260902113213 23 360 1.6 0.0 0.00 0.00 0.00 53 1018.9
20260902112706 23 276 1.6 0.0 0.00 0.00 0.00 51 1019.1
20260902112159 23 292 1.6 0.0 0.00 0.00 0.00 51 1019.1
20260902111714 23 302 1.6 0.0 0.00 0.00 0.00 52 1019.1
20260902111208 22 360 1.6 0.0 0.00 0.00 0.00 57 1019.4
20260902110703 22 306 0.0 0.0 0.00 0.00 0.00 56 1019.4
20260902110210 22 318 0.0 0.0 0.00 0.00 0.00 57 1019.4
20260902105713 22 360 1.6 0.0 0.00 0.00 0.00 57 1019.6
20260902105158 21 360 1.6 0.0 0.00 0.00 0.00 58 1019.6
20260902104707 22 290 1.6 0.0 0.00 0.00 0.00 57 1019.6
20260902104210 22 279 0.0 0.0 0.00 0.00 0.00 59 1019.7
20260902103718 21 259 0.0 0.0 0.00 0.00 0.00 57 1019.7
20260902103202 21 321 0.0 0.0 0.00 0.00 0.00 58 1019.7
20260902102707 21 321 0.0 0.0 0.00 0.00 0.00 59 1019.9
20260902102205 21 355 0.0 0.0 0.00 0.00 0.00 60 1019.9
20260902101706 21 9 0.0 0.0 0.00 0.00 0.00 60 1019.9
20260902101215 21 9 0.0 0.0 0.00 0.00 0.00 59 1020.1
20260902100718 21 253 0.0 0.0 0.00 0.00 0.00 62 1020.1
20260902100200 21 240 0.0 0.0 0.00 0.00 0.00 62 1020.1
20260902095706 21 295 0.0 0.0 0.00 0.00 0.00 62 1020.3
20260902095209 21 295 0.0 0.0 0.00 0.00 0.00 63 1020.3
20260902094707 20 360 0.0 0.0 0.00 0.00 0.00 64 1020.3
20260902094214 20 294 0.0 0.0 0.00 0.00 0.00 64 1019.6
20260902093714 20 292 0.0 0.0 0.00 0.00 0.00 65 1019.6
20260902093216 20 311 0.0 0.0 0.00 0.00 0.00 63 1019.6
20260902092715 20 360 0.0 0.0 0.00 0.00 0.00 64 1019.5
20260902092201 20 360 0.0 0.0 0.00 0.00 0.00 64 1019.5
20260902091701 20 268 0.0 0.0 0.00 0.00 0.00 65 1019.5
20260902091200 19 273 0.0 0.0 0.00 0.00 0.00 63 1020.2
20260902090708 19 273 0.0 0.0 0.00 0.00 0.00 64 1020.2
20260902090207 19 198 0.0 0.0 0.00 0.00 0.00 66 1020.2
20260902085710 19 199 0.0 0.0 0.00 0.00 0.00 64 1020.2
20260902085211 19 163 0.0 0.0 0.00 0.00 0.00 65 1020.2
20260902084703 19 161 0.0 0.0 0.00 0.00 0.00 66 1020.2
20260902084206 18 161 0.0 0.0 0.00 0.00 0.00 66 1020.4
20260902083704 18 360 0.0 0.0 0.00 0.00 0.00 67 1020.4
20260902083213 18 162 0.0 0.0 0.00 0.00 0.00 68 1020.4
20260902082710 18 162 0.0 0.0 0.00 0.00 0.00 66 1020.2
20260902082216 18 162 0.0 0.0 0.00 0.00 0.00 66 1020.2
20260902081700 18 161 0.0 0.0 0.00 0.00 0.00 69 1020.2
20260902081214 18 161 0.0 0.0 0.00 0.00 0.00 69 1019.9
20260902080709 18 360 0.0 0.0 0.00 0.00 0.00 69 1019.9
20260902080203 18 360 0.0 0.0 0.00 0.00 0.00 67 1019.9
20260902075708 17 160 0.0 0.0 0.00 0.00 0.00 70 1020.0
20260902075210 17 160 0.0 0.0 0.00 0.00 0.00 74 1020.0
20260902074712 17 0.0 0.0 0.00 0.00 0.00 73 1020.0
20260902074218 -17 0.0 0.0 0.00 0.00 0.00 1019.2
20260902073717 -17 0.0 0.0 0.00 0.00 0.00 1019.2
20260902073216 -17 0.0 0.0 0.00 0.00 0.00 1019.2
20260902072703 -17 0.0 0.0 0.00 0.00 0.00 1019.3
20260902072213 -17 0.0 0.0 0.00 0.00 0.00 1019.3
20260902071707 -17 0.0 0.0 0.00 0.00 0.00 1019.3
20260902071159 -17 0.0 0.0 0.00 0.00 0.00 1019.8
20260902070711 -17 0.0 0.0 0.00 0.00 0.00 1019.8
20260902070211 -17 0.0 0.0 0.00 0.00 0.00 1019.8
20260902065711 -17 0.0 0.0 0.00 0.00 0.00 1019.8
20260902065200 -17 0.0 0.0 0.00 0.00 0.00 1019.8
20260902064714 -17 0.0 0.0 0.00 0.00 0.00 1019.8
20260902064208 -17 0.0 0.0 0.00 0.00 0.00 1019.8
20260902063700 -17 0.0 0.0 0.00 0.00 0.00 1019.8
20260902063211 -17 0.0 0.0 0.00 0.00 0.00 1019.8
20260902062714 -17 0.0 0.0 0.00 0.00 0.00 1019.7
20260902062202 -17 0.0 0.0 0.00 0.00 0.00 1019.7
20260902061718 -17 0.0 0.0 0.00 0.00 0.00 1019.7
20260902061203 -17 0.0 0.0 0.00 0.00 0.00 1019.4
20260902060713 -17 0.0 0.0 0.00 0.00 0.00 1019.4
20260902060202 -17 0.0 0.0 0.00 0.00 0.00 1019.4
20260902055712 -17 0.0 0.0 0.00 0.00 0.00 1019.4
20260902055207 -17 0.0 0.0 0.00 0.00 0.00 1019.4
20260902054700 -17 0.0 0.0 0.00 0.00 0.00 1019.4
20260902054215 -17 0.0 0.0 0.00 0.00 0.00 1019.3
20260902053709 -17 0.0 0.0 0.00 0.00 0.00 1019.3
20260902053205 -17 0.0 0.0 0.00 0.00 0.00 1019.3
20260902052658 -17 0.0 0.0 0.00 0.00 0.00 1019.3
20260902052211 -17 0.0 0.0 0.00 0.00 0.00 1019.3
20260902051706 -17 0.0 0.0 0.00 0.00 0.00 1019.3
20260902051200 -17 0.0 0.0 0.00 0.00 0.00 1019.2
20260902050709 -17 0.0 0.0 0.00 0.00 0.00 1019.2
20260902050212 -17 0.0 0.0 0.00 0.00 0.00 1019.2
20260902045715 -17 0.0 0.0 0.00 0.00 0.00 1019.4
20260902045206 -17 0.0 0.0 0.00 0.00 0.00 1019.4
20260902044700 -17 0.0 0.0 0.00 0.00 0.00 1019.4
20260902044214 -17 0.0 0.0 0.00 0.00 0.00 1019.2
20260902043710 -17 0.0 0.0 0.00 0.00 0.00 1019.2
20260902043205 -17 0.0 0.0 0.00 0.00 0.00 1019.2
20260902042659 -17 0.0 0.0 0.00 0.00 0.00 1019.3
20260902042210 -17 0.0 0.0 0.00 0.00 0.00 1019.3
20260902041718 -17 0.0 0.0 0.00 0.00 0.00 1019.3
20260902041217 -17 0.0 0.0 0.00 0.00 0.00 1019.1
20260902040715 -17 0.0 0.0 0.00 0.00 0.00 1019.1
20260902040204 -17 0.0 0.0 0.00 0.00 0.00 1019.1
20260902035658 -17 0.0 0.0 0.00 0.00 0.00 1019.2
20260902035213 -17 0.0 0.0 0.00 0.00 0.00 1019.2
20260902034708 -17 0.0 0.0 0.00 0.00 0.00 1019.2
20260902034203 -17 0.0 0.0 0.00 0.00 0.00 1019.1
20260902033714 -17 0.0 0.0 0.00 0.00 0.00 1019.1
20260902033209 -17 0.0 0.0 0.00 0.00 0.00 1019.1
20260902032703 -17 0.0 0.0 0.00 0.00 0.00 1019.2
20260902032216 -17 0.0 0.0 0.00 0.00 0.00 1019.2
20260902031710 -17 0.0 0.0 0.00 0.00 0.00 1019.2
20260902031205 -17 0.0 0.0 0.00 0.00 0.00 1019.3
20260902030710 -17 0.0 0.0 0.00 0.00 0.00 1019.3
20260902030210 -17 0.0 0.0 0.00 0.00 0.00 1019.3
20260902025709 -17 0.0 0.0 0.00 0.00 0.00 1019.3
20260902025204 -17 0.0 0.0 0.00 0.00 0.00 1019.3
20260902024717 -17 0.0 0.0 0.00 0.00 0.00 1019.3
20260902024213 -17 0.0 0.0 0.00 0.00 0.00 1019.4
20260902023707 -17 0.0 0.0 0.00 0.00 0.00 1019.4
20260902023201 -17 0.0 0.0 0.00 0.00 0.00 1019.4